Showing default

ESSA 5, 2757

Orbit data source: Space-Track

ESSA 5, 2757 is a payload satellite owned by ESSA (US) in SSO that was launched on Thu, 20 Apr 1967 UTC via a THOR DELTA E launch vehicle from the Air Force Western Test Range (AFWTR). Payload-class satellites include a variety of spacecraft equipped with specific instruments for various scientific and technological missions. These include communications satellites like Starlink; space stations such as the ISS; scientific satellites like the Hubble; Earth observation satellites from companies like Planet Labs, Umbra, and HawkEye 360; GPS; miniature CubeSats for education and research; and military/defense satellites.

Loading next visibility...
Identifier
2757, 1967-036A
Orbit
SSO
Country
Flag of USUS
Related business
Manufacturer
RCA/East Windsor
Mission
Non-operational spacecraft
Bus & Motor
TIROS I, Unknown motor
Mass
147 kg wet, 147 kg dry
Launch date (UTC)
1967-04-20 (59 years ago)
Launch vehicle
THOR DELTA E
Launch site
Air Force Western Test Range (AFWTR)
Object type
Payload
Rocket body
Debris
Shape & HBR
Unknown
Radar Cross Section
Medium (>0.1 m² and <1 m²)

Expand to show TLE details & history
Last TLE update: 6 hours ago

TLE from 6 hours ago
0 ESSA 5
1 02757U 67036A   25300.92408372 -.00000029  00000-0  10121-3 0  9998
2 02757 101.9766 109.6495 0042782 348.2969 138.8390 12.68538521709527
Epoch: 2025-10-27T22:10Z
TLE epoch observation values (Epoch: 2025-10-27T22:10:40.833Z)
Latitude
51.0387°
Longitude
-64.40859°
Altitude
1,420.952 km
Speed
7.144 km/s
True Right ascension
20h 19m 07s
True Declination
50° 53' 05"
Sunlit
Object was in daylight at epoch
Visualization orbit readout
Latitude
Unknown
Longitude
Unknown
Altitude
Unknown
Speed
Unknown
Apparent Right ascension
Unknown
Apparent Declination
Unknown
Sunlit
N/A
Visualization observer readout
Local Sidereal Time
23:55:21
Azimuth
Unknown
Elevation
Unknown
Doppler factor
Unknown
Orbital elements
Apogee altitude
1,418.649 km
Perigee altitude
1,352.221 km
Semi-major axis
7,763.572 km
Eccentricity
0.00428
Inclination
101.9766°
RAAN
109.6495°
Arg. of periapsis
348.2969°
True anomaly
139.16037°
Mean anomaly
138.839°
Eccentric anomaly
138.99982°
Mean motion
3.17286 °/min
Orbital period
113.46 mins
BSTAR
0.00010121
Loading maneuver chart data...
Computing Atmospheric mass density...
Loading historical data...
Loading historical data...
Loading historical data...
Loading historical data...
Loading historical data...
Loading historical data...
Loading historical data...
Other satellites on launch #36 in the year 1967 (1967-04-20 UTC)

Documentation

Showing up to 5 results
|